This demonstration page uses our WeatherBlox Daily Observations layout. Learn more.

Left ArrowRight Arrow

30.21309, -93.2044

Hourly Observations for June 27, 2019

Temp ( °F °C ) Dew Point ( °F °C ) Humidity (%) Winds ( mph kmh ) Pressure ( in mb ) Visibility ( mi km ) Precip ( " mm )
12:15 am 00:15 Clear 78 25.7 76 24.7 94 94 NNE 3 6 30.17 1022 10 16 0.00 0.00
12:35 am 00:35 Clear 78 25.3 76 24.5 95 95 Calm 30.16 1021 7 11 0.00 0.00
12:55 am 00:55 Clear 77 25 76 24.5 97 97 Calm 30.16 1021 7 11 0.00 0.00
1:15 am 01:15 Clear 77 24.9 76 24.5 98 98 Calm 30.15 1021 7 11 0.00 0.00
1:35 am 01:35 Clear 77 24.8 76 24.5 98 98 Calm 30.15 1021 7 11 0.00 0.00
1:55 am 01:55 Clear 77 25 76 24.5 97 97 Calm 30.15 1021 7 11 0.00 0.00
2:15 am 02:15 Clear 77 25 76 24.5 97 97 Calm 30.15 1021 10 16 0.00 0.00
2:35 am 02:35 Clear 77 24.9 76 24.4 97 97 Calm 30.15 1021 10 16 0.00 0.00
2:55 am 02:55 Clear 76 24.7 76 24.2 97 97 Calm 30.14 1021 7 11 0.00 0.00
3:15 am 03:15 Mostly Cloudy 75 24 74 23.6 98 98 Calm 30.14 1021 1 2 0.00 0.00
3:35 am 03:35 Mostly Cloudy 76 24.2 75 24 99 99 Calm 30.14 1021 1 1 0.00 0.00
3:55 am 03:55 Mostly Cloudy 75 24.1 75 24 99 99 Calm 30.14 1021 1 1 0.00 0.00
4:15 am 04:15 Mostly Cloudy 75 24.1 75 23.9 99 99 Calm 30.14 1021 1 1 0.00 0.00
4:35 am 04:35 Mostly Cloudy 76 24.3 75 24.1 99 99 Calm 30.14 1021 2 3 0.00 0.00
4:55 am 04:55 Clear 75 24.1 75 23.9 99 99 Calm 30.15 1021 4 6 0.00 0.00
5:15 am 05:15 Clear 76 24.2 75 24 99 99 Calm 30.15 1021 7 11 0.00 0.00
5:35 am 05:35 Clear 75 24.1 75 23.9 99 99 Calm 30.15 1021 5 8 0.00 0.00
6:00 am 06:00 Mostly Clear 75 24 75 24 100 100 Calm 30.15 1021 10 16 0.00 0.00
6:53 am 06:53 Partly Cloudy with Mist and Fog 75 24 75 24 100 100 Calm 30.16 1021 6 10 0.00 0.00
7:55 am 07:55 Mostly Sunny 77 25 77 25 100 100 Calm 30.16 1021 10 16 0.00 0.00
8:55 am 08:55 Mostly Sunny 84 29 79 26 84 84 Calm 30.19 1022 10 16 0.00 0.00
9:55 am 09:55 Partly Cloudy 86 30 75 24 70 70 SSE 6 9 30.18 1022 10 16 0.00 0.00
10:55 am 10:55 Partly Cloudy 88 31 72 22 59 59 Calm 30.19 1022 10 16 0.00 0.00
11:50 am 11:50 Mostly Sunny 90 32 73 23 59 59 Calm 30.19 1022 10 16 0.00 0.00
12:53 pm 12:53 Mostly Sunny 91 33 73 23 56 56 Calm 30.17 1022 10 16 0.00 0.00
1:46 pm 13:46 Mostly Sunny 91 33 72 22 52 52 Calm 30.16 1021 10 16 0.00 0.00
2:45 pm 14:45 Mostly Cloudy 93 34 70 21 47 47 SE 7 11 30.14 1021 10 16 0.00 0.00
3:50 pm 15:50 Mostly Cloudy 93 34 75 24 56 56 ESE 7 11 30.12 1020 10 16 0.00 0.00
4:50 pm 16:50 Mostly Cloudy 91 33 72 22 52 52 SSE 9 15 30.11 1020 10 16 0.00 0.00
5:55 pm 17:55 Mostly Cloudy 88 31 75 24 66 66 SSW 7 11 30.12 1020 10 16 0.00 0.00
6:50 pm 18:50 Mostly Cloudy 82 28 70 21 66 66 NNE 9 15 30.10 1019 10 16 0.00 0.00
9:45 pm 21:45 Mostly Clear 77 25 72 22 83 83 Calm 30.13 1020 10 16 0.00 0.00
10:15 pm 22:15 Clear 79 26.2 69 20.6 71 71 Calm 30.12 1020 10 16 0.00 0.00
10:35 pm 22:35 Clear 76 24.7 71 21.7 83 83 Calm 30.14 1021 10 16 0.00 0.00
10:55 pm 22:55 Clear 77 25.2 69 20.5 75 75 NE 7 11 30.15 1021 10 16 0.00 0.00
11:15 pm 23:15 Clear 77 25.1 68 20.1 74 74 Calm 30.15 1021 10 16 0.00 0.00
11:35 pm 23:35 Clear 76 24.2 69 20.5 80 80 Calm 30.15 1021 10 16 0.00 0.00
11:55 pm 23:55 Clear 76 24.5 69 20.4 78 78 Calm 30.14 1021 10 16 0.00 0.00

Powered by AerisWeather